COSMOS 876

Satellite information

Favourite Embed

Satellite Type and Status

PAYLOADIN ORBIT

Key statistics

Satellite COSMOS 876 at a glance.

Uptime

17686

Days in orbit

Revolutions

≈ 12.4

Per day

Orbit

LEO

Low Earth Orbit

Inclination

74.0

Latest

Satellite identification and parameters

Extended collection of information and parameters for COSMOS 876.

Object identification

Identified? True

Debris? False

Object name: COSMOS 876

International designator: 1976-118F

Object number (NORAD): 9593

Object ID (CCSDS): 9593

Country: COMMONWEALTH OF INDEPENDENT STATES (CIS)

Current information (Y/N): Y

RCS size: MEDIUM

Orbital parameters

Period: 116.005 minutes

Inclination: 74.0285 deg

SMA: 7879.145 km

Apoapsis: 1537.969 km

Periapsis: 1464.051 km

RAAN: 163.3904 deg

Eccentricy: 0.0046907

Argument of periapsis: 34.9227 deg

Mean anomaly: 82.6324 deg

Mean motion: 12.413211 rev/day

Mean motion (dot): 0.00000012 rev/day2

B* drag term: 0.0001971 1/REarth

Two-line elements (TLE)

Creation date: May 10, 2025, 2:32 a.m.

Reference frame: TEME

Reference center: EARTH

Epoch: May 9, 2025, 1:16 p.m. UTC

TLE line 0: 0 COSMOS 876

TLE line 1: 1 09593U 76118F 25129.55303711 .00000012 00000-0 19710-3 0 9997

TLE line 2: 2 09593 74.0285 163.3904 0046907 34.9227 82.6324 12.41321100194119

Live tracking on map

Real-time ground track for satellite COSMOS 876.

In-orbit conjunctions

A list of the most updated potential collisions computed for object COSMOS 876.

Target Orbit TCA Probability of collision Miss distance Type
DELTA 1 DEB SSO 2024-09-24 22:29:25 0.0006863105 556.0 (m) DEBRIS

Associated space launch

Military communications satellites

COSMOS 876 was lifted into orbit during the mission ‘Kosmos-3M | Strela-1M 121-128’, on board a Kosmos-3M space rocket.

The launch took place on Dec. 7, 1976, 10:23 a.m. from 132/1 (132L).

For more information about the launch, click the button.

Launch to space Kosmos-3M | Strela-1M 121-128
Kosmos-3M | Strela-1M 121-128

Agency: N/A

Status: Launch Successful

Launch date: Dec. 7, 1976, 10:23 a.m. UTC

Rocket: Kosmos-3M

Launch pad: 132/1 (132L)

Location: Plesetsk Cosmodrome, Russian Federation

...

Latest news about this satellite

There are no fresh news available about this satellite. Check back as we update our databases every day.


Newsletter sign-up

Weekly statistics, charts and insights to help you stay on top of the space industry.